Вернуться в каталог

NOAA 16 DEB

АктивенSSO
NORAD 41079·DEBRIS·🇺🇸 United States

Запущен Sep 21, 2000 с Vandenberg Space Force Base

Loading…

Ближайшие Пролёты (ближайшие 24 часа)

TLE

СвежийSource: Space-Track

Эпоха: Sep 13, 2026, 19:48 UTC

1 41079U 00055AN  26256.82504024  .00000292  00000-0  27673-3 0  9998
2 41079  99.1180 196.5172 0142866 149.6072 211.3463 13.84264965544728

Отслеживайте NOAA 16 DEB в реальном времени с AllMySat

Download on the App Store